Terug naar catalogus

MUOS 3

ActiefMilitairGEO
NORAD 40374·PAYLOAD·🇺🇸 United States

Gelanceerd Jan 21, 2015 vanaf Cape Canaveral Space Force Station

Loading…

TLE

VersSource: Space-Track

Epoch: Sep 14, 2026, 06:53 UTC

1 40374U 15002A   26257.28686436 -.00000135  00000-0  00000-0 0  9991
2 40374   4.6912  43.7843 0057874 178.4783 218.7851  1.00273608 42487

Volg MUOS 3 in realtime met AllMySat

Download on the App Store